When you browse on this site, cookies collect data to enhance your experience and personalize the content and advertising you see.
Visit our Privacy Policy to learn more. By continuing to use the site, you agree to this use of cookies and data.
  • In Hungary
  • List of Countries
  • For 7 days
  • Water Temperature
  • Weather Map
  • News
  • Weather Widgets
  • user-avatar
    Login

    Hourly Weather Bar Bigha

    Today, 23 February, Sunday

    Time Temperature Precipitation Wind Pressure Humidity
    00:00 +22°C° 0 mm 1 mps 759 mmHg 59%
    01:00 +20°C° 0.2 mm 0 mps 758 mmHg 62%
    02:00 +19°C° 0.2 mm 0 mps 758 mmHg 64%
    03:00 +19°C° 0.2 mm 0 mps 758 mmHg 66%
    04:00 +19°C° 0.2 mm 0 mps 758 mmHg 67%
    05:00 +20°C° 0.2 mm 1 mps 757 mmHg 69%
    06:00 +18°C° 0 mm 0 mps 757 mmHg 72%
    07:00 +22°C° 0.1 mm 1 mps 758 mmHg 67%
    08:00 +23°C° 0.1 mm 1 mps 758 mmHg 62%
    09:00 +25°C° 0.1 mm 2 mps 759 mmHg 57%
    10:00 +27°C° 0 mm 2 mps 759 mmHg 50%
    11:00 +29°C° 0 mm 2 mps 758 mmHg 43%
    12:00 +31°C° 0 mm 3 mps 759 mmHg 39%
    13:00 +31°C° 0 mm 2 mps 758 mmHg 36%
    14:00 +32°C° 0 mm 1 mps 756 mmHg 33%
    15:00 +31°C° 0 mm 0 mps 755 mmHg 30%
    16:00 +32°C° 0 mm 1 mps 755 mmHg 33%
    17:00 +30°C° 0 mm 1 mps 755 mmHg 36%
    18:00 +29°C° 0 mm 1 mps 754 mmHg 39%
    19:00 +27°C° 0 mm 2 mps 755 mmHg 44%
    20:00 +26°C° 0 mm 2 mps 755 mmHg 49%
    21:00 +24°C° 0 mm 3 mps 755 mmHg 53%
    22:00 +22°C° 0.3 mm 3 mps 755 mmHg 61%
    23:00 +21°C° 0.3 mm 3 mps 756 mmHg 68%

    Tomorrow, 24 February, Monday

    Time Temperature Precipitation Wind Pressure Humidity
    00:00 +20°C° 0.3 mm 2 mps 756 mmHg 76%
    01:00 +19°C° 0 mm 2 mps 755 mmHg 79%
    02:00 +20°C° 0 mm 1 mps 755 mmHg 82%
    03:00 +19°C° 0 mm 1 mps 754 mmHg 86%
    04:00 +19°C° 0 mm 1 mps 754 mmHg 86%
    05:00 +19°C° 0 mm 1 mps 754 mmHg 86%
    06:00 +19°C° 0 mm 1 mps 754 mmHg 86%
    07:00 +21°C° 0 mm 1 mps 755 mmHg 77%
    08:00 +23°C° 0 mm 1 mps 755 mmHg 68%
    09:00 +25°C° 0 mm 1 mps 756 mmHg 59%
    10:00 +27°C° 0 mm 1 mps 756 mmHg 52%
    11:00 +29°C° 0 mm 1 mps 756 mmHg 45%
    12:00 +31°C° 0 mm 1 mps 756 mmHg 37%
    13:00 +32°C° 0 mm 1 mps 754 mmHg 34%
    14:00 +33°C° 0 mm 1 mps 753 mmHg 31%
    15:00 +33°C° 0 mm 1 mps 752 mmHg 29%
    16:00 +32°C° 0 mm 2 mps 752 mmHg 33%
    17:00 +30°C° 0 mm 2 mps 752 mmHg 37%
    18:00 +29°C° 0 mm 3 mps 751 mmHg 42%
    19:00 +26°C° 0.5 mm 3 mps 752 mmHg 52%
    20:00 +24°C° 0.5 mm 2 mps 753 mmHg 63%
    21:00 +20°C° 0.5 mm 2 mps 753 mmHg 74%
    22:00 +20°C° 0.9 mm 2 mps 753 mmHg 76%
    23:00 +20°C° 0.9 mm 2 mps 754 mmHg 78%

    Day after tomorrow, 25 February, Tuesday

    Time Temperature Precipitation Wind Pressure Humidity
    00:00 +20°C° 0.9 mm 2 mps 754 mmHg 80%
    01:00 +21°C° 0.4 mm 1 mps 753 mmHg 79%
    02:00 +21°C° 0.4 mm 1 mps 753 mmHg 78%
    03:00 +19°C° 0.4 mm 0 mps 753 mmHg 78%
    04:00 +21°C° 0.6 mm 1 mps 753 mmHg 81%
    05:00 +19°C° 0.6 mm 2 mps 753 mmHg 84%
    06:00 +18°C° 0.6 mm 2 mps 753 mmHg 87%
    07:00 +19°C° 0.7 mm 3 mps 753 mmHg 83%
    08:00 +21°C° 0.7 mm 3 mps 754 mmHg 78%
    09:00 +22°C° 0.7 mm 3 mps 755 mmHg 74%
    10:00 +25°C° 0 mm 4 mps 755 mmHg 66%
    11:00 +27°C° 0 mm 4 mps 755 mmHg 58%
    12:00 +29°C° 0 mm 5 mps 755 mmHg 49%
    13:00 +29°C° 0.1 mm 4 mps 754 mmHg 48%
    14:00 +29°C° 0.1 mm 4 mps 753 mmHg 46%
    15:00 +30°C° 0.1 mm 4 mps 752 mmHg 44%
    16:00 +28°C° 0.6 mm 5 mps 752 mmHg 52%
    17:00 +26°C° 0.6 mm 5 mps 752 mmHg 61%
    18:00 +23°C° 0.6 mm 6 mps 752 mmHg 69%
    19:00 +22°C° 2.4 mm 6 mps 753 mmHg 75%
    20:00 +21°C° 2.4 mm 5 mps 753 mmHg 80%
    21:00 +20°C° 2.4 mm 5 mps 754 mmHg 86%
    22:00 +20°C° 2.3 mm 5 mps 754 mmHg 87%
    23:00 +19°C° 2.3 mm 5 mps 755 mmHg 89%

    26 February, Wednesday

    Time Temperature Precipitation Wind Pressure Humidity
    00:00 +19°C° 2.3 mm 5 mps 755 mmHg 90%
    01:00 +19°C° 0.2 mm 4 mps 754 mmHg 91%
    02:00 +18°C° 0.2 mm 3 mps 754 mmHg 93%
    03:00 +18°C° 0.2 mm 2 mps 753 mmHg 94%
    04:00 +18°C° 0.3 mm 2 mps 754 mmHg 95%
    05:00 +17°C° 0.3 mm 2 mps 754 mmHg 95%
    06:00 +17°C° 0.3 mm 2 mps 754 mmHg 95%
    07:00 +18°C° 0 mm 2 mps 755 mmHg 90%
    08:00 +19°C° 0 mm 2 mps 755 mmHg 86%
    09:00 +20°C° 0 mm 2 mps 756 mmHg 82%
    10:00 +21°C° 0.1 mm 2 mps 756 mmHg 75%
    11:00 +24°C° 0.1 mm 2 mps 756 mmHg 68%
    12:00 +25°C° 0.1 mm 2 mps 756 mmHg 61%
    13:00 +26°C° 1.2 mm 3 mps 756 mmHg 60%
    14:00 +26°C° 1.2 mm 3 mps 755 mmHg 59%
    15:00 +26°C° 1.2 mm 4 mps 754 mmHg 58%
    16:00 +25°C° 0.3 mm 4 mps 754 mmHg 64%
    17:00 +22°C° 0.3 mm 4 mps 754 mmHg 70%
    18:00 +21°C° 0.3 mm 3 mps 754 mmHg 77%
    19:00 +20°C° 0 mm 3 mps 755 mmHg 78%
    20:00 +19°C° 0 mm 2 mps 755 mmHg 80%
    21:00 +20°C° 0 mm 1 mps 756 mmHg 82%
    22:00 +19°C° 0 mm 1 mps 756 mmHg 82%
    23:00 +19°C° 0 mm 1 mps 756 mmHg 82%

    27 February, Thursday

    Time Temperature Precipitation Wind Pressure Humidity
    00:00 +18°C° 0 mm 1 mps 756 mmHg 83%
    01:00 +18°C° 0 mm 1 mps 755 mmHg 83%
    02:00 +18°C° 0 mm 1 mps 755 mmHg 84%
    03:00 +15°C° 0 mm 0 mps 754 mmHg 84%
    04:00 +16°C° 0 mm 1 mps 755 mmHg 84%
    05:00 +16°C° 0 mm 1 mps 755 mmHg 84%
    06:00 +16°C° 0 mm 1 mps 755 mmHg 84%
    07:00 +18°C° 0 mm 1 mps 755 mmHg 79%
    08:00 +19°C° 0 mm 1 mps 756 mmHg 73%
    09:00 +21°C° 0 mm 1 mps 756 mmHg 68%
    10:00 +23°C° 0 mm 1 mps 756 mmHg 62%
    11:00 +24°C° 0 mm 1 mps 756 mmHg 56%
    12:00 +26°C° 0 mm 1 mps 756 mmHg 49%
    13:00 +27°C° 0 mm 1 mps 756 mmHg 47%
    14:00 +27°C° 0 mm 1 mps 755 mmHg 44%
    15:00 +28°C° 0 mm 1 mps 754 mmHg 41%
    16:00 +27°C° 0 mm 1 mps 754 mmHg 44%
    17:00 +26°C° 0 mm 1 mps 754 mmHg 47%
    18:00 +25°C° 0 mm 1 mps 754 mmHg 51%
    19:00 +24°C° 0 mm 1 mps 754 mmHg 53%
    20:00 +23°C° 0 mm 1 mps 755 mmHg 54%
    21:00 +22°C° 0 mm 1 mps 755 mmHg 56%
    22:00 +22°C° 0 mm 1 mps 755 mmHg 57%
    23:00 +21°C° 0 mm 1 mps 755 mmHg 59%

    28 February, Friday

    Time Temperature Precipitation Wind Pressure Humidity
    00:00 +21°C° 0 mm 1 mps 755 mmHg 61%
    01:00 +21°C° 0 mm 1 mps 754 mmHg 62%
    02:00 +20°C° 0 mm 1 mps 754 mmHg 64%
    03:00 +20°C° 0 mm 1 mps 753 mmHg 66%
    04:00 +19°C° 0 mm 1 mps 753 mmHg 68%
    05:00 +17°C° 0 mm 0 mps 754 mmHg 69%
    06:00 +16°C° 0 mm 0 mps 754 mmHg 71%
    07:00 +20°C° 0 mm 1 mps 754 mmHg 66%
    08:00 +22°C° 0 mm 1 mps 755 mmHg 61%
    09:00 +24°C° 0 mm 1 mps 756 mmHg 56%
    10:00 +25°C° 0 mm 1 mps 756 mmHg 51%
    11:00 +27°C° 0 mm 2 mps 756 mmHg 46%
    12:00 +28°C° 0 mm 2 mps 755 mmHg 41%
    13:00 +29°C° 0 mm 2 mps 754 mmHg 38%
    14:00 +30°C° 0 mm 2 mps 754 mmHg 35%
    15:00 +30°C° 0 mm 2 mps 753 mmHg 32%
    16:00 +29°C° 0 mm 2 mps 753 mmHg 36%
    17:00 +28°C° 0 mm 2 mps 752 mmHg 39%
    18:00 +27°C° 0 mm 2 mps 752 mmHg 43%
    19:00 +26°C° 0 mm 2 mps 753 mmHg 46%
    20:00 +25°C° 0 mm 2 mps 753 mmHg 48%
    21:00 +24°C° 0 mm 2 mps 754 mmHg 50%
    22:00 +23°C° 0 mm 2 mps 753 mmHg 52%
    23:00 +23°C° 0 mm 2 mps 753 mmHg 53%
    Show more